SCP
-0 -0 -0 -0 -0 -0 -0 -0 -0 -0 -0 -0 -0 -0 -0 -0 0 0 0 0 -0 0 0 0 0 0 0 0 0 0 0 0 0 0 0 0 0 0 0 0 0 0 0 0 0 0 0
-0 -0 -0 -0 -0 -0 -0 -0 -0 -0 -0 -0 -0 -0 -0 -0 -0 0 -0 -0 0 0 0 0 0 0 0 0 0 0 0 0 0 0 0 0 0 0 0 0 0 0 0 0 0 0 0
-0 -0 -0 -0 -0 -0 -0 -0 -0 -0 -0 -0 -0 -0 -0 -0 -0 -0 0 0 0 0 0 0 0 0 0 0 0 0 0 0 0 0 0 0 0 0 0 0 0 0 0 0 0 0 0
-0 -0 -0 -0 -0 -0 -0 -0 -0 -0 -0 -0 -0 -0 -0 -0 -0 0 0 0 0 0 0 0 0 0 0 0 0 0 0 0 0 0 0 0 0 0 0 0 0 0 0 0 0 0 0
-0 -0 -0 -0 -0 -0 -0 -0 -0 -0 -0 -0 -0 -0 -0 -0 0 0 0 0 0 0 0 0 0 0 0 0 0 0 0 0 0 0 0 0 0 0 0 0 0 0 0 0 0 0 0
-0 -0 -0 0 0 -0 -0 -0 -0 -0 -0 -0 -0 -0 0 0 0 0 0 0 0 0 0 0 0 0 0 0 0 0 0 0 0 0 0 0 0 0 0 0 0 0 0 0 0 0 0
0 0 0 0 0 -0 -0 -0 -0 -0 -0 -0 -0 0 0 0 0 0 0 0 0 0 0 0 0 0 0 0 0 0 0 0 0 0 0 0 0 0 0 0 0 0 0 0 0 0 0
0 0 0 0 0 0 -0 -0 -0 -0 -0 0 0 0 0 0 0 0 0 0 0 0 0 0 0 0 0 0 0 0 0 0 0 0 0 0 0 0 0 0 0 0 0 0 0 0 0
0 0 0 0 0 0 0 0 0 0 0 0 0 0 0 0 0 0 0 0 0 0 0 0 0 0 0 0 0 0 0 0 0 0 0 0 0 0 0 0 0 0 0 0 0 0 0
0 0 0 0 0 0 0 0 0 0 0 0 0 0 0 0 0 0 0 0 0 0 0 0 0 0 0 0 0 0 0 0 0 0 0 0 0 0 0 0 0 0 0 0 0 0 0
0 0 0 0 0 0 0 0 0 0 0 0 0 0 0 0 0 0 0 0 0 0 0 0 0 0 0 0 0 0 0 0 0 0 0 0 0 0 0 0 0 0 0 0 0 0 0
0 0 0 0 0 0 0 0 0 0 0 0 0 0 -0 0 0 0 0 0 0 0 0 0 0 0 0 0 0 0 0 0 0 0 0 0 0 0 0 0 0 0 0 0 0 0 0
0 0 0 0 0 0 0 0 0 0 0 0 0 0 0 0 0 0 0 0 0 0 0 0 0 0 0 0 0 0 0 0 0 0 0 0 0 0 0 0 0 0 0 0 0 0 0
0 0 0 0 0 0 0 0 0 0 0 0 0 0 0 0 0 0 0 0 0 0 0 0 0 0 0 0 0 0 0 0 0 0 0 0 0 0 0 0 0 0 0 0 0 0 0
0 0 0 0 0 0 0 0 0 0 0 0 -0 0 0 0 0 0 0 0 0 0 0 0 0 0 0 0 0 0 0 0 0 0 0 0 0 0 0 0 -0 0 0 -0 0 0 0
0 0 0 0 0 0 0 0 0 0 0 0 0 0 0 0 0 0 0 0 0 0 0 0 0 0 0 0 0 0 0 0 0 0 0 0 0 0 0 0 0 0 0 0 0 0 0
0 0 0 0 0 0 0 0 0 0 0 0 0 0 0 0 0 0 0 0 0 0 0 0 0 0 0 0 0 0 0 0 0 0 0 0 0 0 0 0 0 0 -0 0 0 -0 -0
0 0 0 0 0 0 0 0 0 0 0 0 0 0 0 0 0 0 0 0 0 0 0 0 0 0 0 0 0 0 0 0 0 0 0 0 0 0 0 0 0 0 0 0 0 -0 0
0 0 0 0 0 0 0 0 0 0 0 0 0 0 0 0 0 0 0 0 0 0 0 0 0 0 0 0 0 0 0 0 0 0 0 0 0 0 0 -0 0 -0 -0 -0 0 0 0
0 0 0 0 0 0 0 0 0 0 0 0 0 0 0 0 0 0 0 0 0 0 0 0 0 0 0 0 0 0 0 0 0 0 0 0 0 0 0 0 0 0 -0 -0 0 0 0
0 0 0 0 0 0 0 0 0 0 0 0 0 0 0 0 0 0 0 0 0 0 0 0 0 0 0 0 0 0 0 0 0 0 0 0 0 -0 0 0 0 0 -0 -0 -0 -0 -0
0 0 0 0 0 0 0 0 0 0 0 0 0 0 0 0 0 0 0 0 0 0 0 0 0 0 0 0 0 0 0 0 0 0 0 0 0 0 -0 0 0 0 0 0 0 0 -0
0 0 0 0 0 0 0 0 0 0 0 0 0 0 0 0 0 0 0 0 0 0 0 0 0 0 0 0 -0 -0 -0 -0 0 0 -0 0 -0 -0 0 -0 0 0 0 0 0 -0 0
0 0 0 0 0 0 0 0 0 0 0 0 0 -0 0 0 0 0 0 0 0 0 0 0 0 0 0 -0 -0 -0 0 0 0 0 0 0 0 0 0 -0 0 0 0 0 -0 0 0
0 0 0 0 0 0 0 0 0 0 0 0 0 0 0 0 0 0 0 0 0 0 0 0 0 0 0 0 0 0 0 0 0 0 0 0 0 0 0 0 0 0 0 0 -0 0 0
0 0 0 0 0 0 0 0 0 0 0 0 0 0 0 0 0 0 0 0 0 0 0 0 0 0 0 0 0 0 0 0 0 0 0 0 0 0 0 0 0 0 -0 0 -0 0 0
0 0 0 0 0 0 0 0 0 0 0 0 0 0 0 0 0 0 0 0 0 0 0 0 0 0 0 0 0 0 0 0 0 0 0 0 0 0 0 0 0 0 0 -0 0 0 -0
0 0 0 0 0 0 0 0 0 0 0 0 0 0 0 0 0 0 0 0 0 0 0 0 0 0 0 0 0 0 0 0 0 0 0 0 0 0 0 0 0 0 -0 0 0 0 -0
0 0 0 0 0 0 0 0 0 0 0 0 0 0 0 0 0 0 0 0 0 0 0 0 0 0 0 0 0 0 0 0 0 0 0 0 0 0 0 0 0 0 0 0 0 -0 -0
Wind_Speed_500mb
21 23 26 29 31 34 36 38 41 44 46 48 50 50 50 48 47 46 43 39 41 43 40 33 24 15 3 3 5 15 11 9 7 7 8 13 19 25 23 19 28 32 25 41 51 58 38
21 25 27 30 32 34 37 39 42 44 48 50 51 51 51 49 48 48 44 43 44 42 30 28 19 5 7 4 4 13 10 6 3 7 9 14 14 22 24 27 24 35 48 38 43 49 51
21 24 26 29 32 34 37 41 45 48 51 53 54 54 52 50 47 47 43 44 46 30 25 18 13 9 10 1 11 10 9 9 8 5 10 13 19 14 18 16 27 25 29 29 35 51 35
19 23 26 29 32 36 39 43 46 50 53 55 56 56 53 49 46 45 43 46 39 23 18 14 10 14 7 12 14 14 9 9 13 7 10 16 13 22 28 26 37 27 26 28 14 25 30
20 24 27 30 33 37 40 44 48 52 55 56 57 57 54 49 46 41 42 43 28 13 21 9 17 10 9 14 21 15 12 9 12 13 14 12 11 17 19 16 16 22 20 30 29 18 13
19 22 25 30 34 38 43 48 52 56 57 57 56 56 54 50 47 37 42 35 21 12 28 10 16 4 14 16 18 16 16 13 8 14 19 12 14 11 10 10 14 17 30 39 38 21 30
19 23 27 32 36 39 44 49 53 55 57 58 58 57 54 51 46 34 39 22 16 8 21 8 8 5 10 26 13 13 21 15 14 14 9 17 8 16 22 29 38 36 39 46 46 34 31
19 23 27 31 35 40 45 49 53 55 56 57 56 54 49 48 40 34 31 18 13 9 7 12 10 10 9 26 7 24 24 13 21 20 23 16 27 28 32 29 34 34 45 49 50 41 37
19 23 28 33 37 42 47 51 54 56 57 57 56 52 45 46 29 41 31 33 15 5 9 7 9 10 13 24 12 25 32 21 20 21 19 20 29 33 25 27 38 36 38 40 47 50 46
19 23 28 33 37 42 46 50 53 55 57 56 53 48 42 40 18 31 26 36 17 3 6 5 5 13 26 27 6 24 34 14 10 17 22 17 23 41 36 33 35 32 37 47 46 36 29
17 20 25 31 36 42 48 51 54 55 56 56 53 44 39 38 22 25 34 30 16 7 5 8 7 7 29 16 21 30 21 20 21 28 12 14 32 32 29 24 31 34 40 35 44 39 34
18 22 27 32 38 43 47 51 54 55 55 53 49 40 37 36 30 36 34 25 6 1 6 7 6 16 24 29 11 28 24 29 17 14 15 33 51 22 28 37 33 47 41 43 31 17 21
17 22 26 31 36 42 47 50 54 55 54 52 45 29 35 38 36 36 33 9 4 5 13 13 11 18 19 20 12 28 29 30 21 17 24 27 7 33 53 60 51 43 38 17 8 10 23
17 21 26 31 36 41 46 51 54 54 51 50 41 18 38 44 36 36 20 4 9 12 13 18 15 35 11 23 18 27 31 15 35 28 23 19 18 49 52 47 36 32 22 7 16 18 25
16 20 24 29 34 40 46 51 53 50 48 45 35 14 44 39 31 29 12 10 12 13 12 22 32 7 5 20 15 21 24 20 21 26 23 23 26 44 41 35 36 22 22 32 23 25 18
16 19 23 28 35 42 48 51 50 47 45 42 25 11 46 40 26 26 11 9 7 16 19 14 11 16 18 27 21 28 17 19 17 29 34 23 42 25 39 35 21 20 27 8 7 10 22
14 17 22 28 35 43 47 49 48 44 42 37 14 4 33 26 18 21 7 9 9 19 24 16 15 15 18 20 22 19 15 13 34 25 38 25 14 23 29 29 20 17 18 13 11 11 8
12 15 19 26 35 41 45 46 43 41 41 34 9 2 30 19 13 15 7 7 11 16 26 10 11 13 13 21 12 11 18 17 37 33 20 14 8 18 31 25 20 23 23 16 6 10 11
11 14 19 28 34 40 43 41 37 37 39 31 6 6 22 24 8 10 13 9 12 16 17 12 12 11 14 13 8 13 13 28 29 18 17 13 7 17 23 26 21 21 32 37 12 13 27
8 12 19 27 34 37 39 36 32 31 34 22 8 4 17 32 23 10 6 9 7 15 13 17 6 13 16 15 7 8 18 16 15 20 39 23 12 22 13 10 15 17 37 33 27 13 15
6 12 20 30 30 34 35 31 28 26 30 13 12 8 9 7 16 21 13 7 13 11 14 16 5 18 15 8 10 14 19 16 20 29 34 14 15 21 23 9 19 23 27 32 30 19 15
8 13 24 24 27 31 32 27 24 23 21 33 7 3 9 10 3 3 13 7 12 9 8 9 11 17 16 7 11 15 18 15 8 19 14 16 11 25 23 15 17 19 26 26 28 21 13
14 15 16 20 25 28 29 24 21 23 24 16 13 9 5 4 2 7 6 9 11 14 9 9 14 15 10 18 29 33 28 25 12 7 10 11 14 18 8 28 21 7 20 23 25 20 13
14 12 12 19 21 24 23 21 22 26 30 23 17 12 6 6 13 9 11 9 9 10 7 11 18 12 21 35 33 31 28 15 12 9 21 11 16 9 11 21 10 13 19 18 27 20 25
12 10 14 17 17 19 20 20 22 25 26 24 19 8 6 6 18 13 11 5 11 16 8 5 14 16 24 28 7 7 7 9 7 11 14 19 6 7 8 16 6 6 27 25 29 17 28
16 10 11 13 14 16 18 18 21 24 24 21 18 12 12 14 10 8 9 8 8 9 9 10 13 17 21 9 5 3 4 4 6 11 29 22 14 1 8 15 8 18 27 50 39 7 51
15 16 8 8 11 13 13 14 19 22 22 20 19 12 14 18 8 11 13 7 8 9 5 17 16 16 26 8 6 6 5 8 7 10 11 10 9 12 13 8 6 24 34 37 11 16 57
21 19 8 3 7 11 11 12 17 20 20 17 19 12 12 14 15 11 12 10 6 17 5 16 4 19 12 9 6 5 5 2 2 5 5 5 5 7 8 8 6 53 24 10 20 44 50
28 18 12 5 2 6 9 13 17 19 18 14 19 18 21 16 17 12 14 9 8 11 8 11 1 11 13 4 7 6 5 4 8 3 8 4 7 3 2 9 34 50 24 36 46 49 51
Wind_Direction_500mb
25 23 16 13 12 11 9 5 4 2 359 356 354 352 350 348 344 343 343 340 337 334 330 326 323 318 299 65 69 296 292 299 301 254 216 249 261 259 251 273 279 258 278 269 279 281 275
19 19 13 10 10 8 6 3 1 359 356 354 351 350 348 347 344 342 342 339 338 336 337 336 339 342 110 201 278 309 295 305 227 277 261 248 254 293 313 282 273 291 300 291 295 287 283
17 15 10 8 7 5 2 0 358 356 354 351 349 348 348 347 344 341 340 339 339 344 347 360 14 72 75 239 339 341 357 310 292 259 270 267 264 273 299 305 284 301 298 285 267 263 249
13 11 7 6 5 2 360 358 356 354 352 350 348 348 347 346 344 342 341 341 341 351 1 9 42 85 64 31 48 21 346 324 329 315 284 258 264 270 263 271 293 287 271 275 250 268 243
7 6 3 2 1 359 357 355 353 352 351 351 349 348 347 347 346 344 344 341 344 19 12 45 53 47 83 36 357 334 334 307 291 294 287 275 276 246 276 245 285 239 266 259 269 192 213
5 2 358 359 359 357 355 353 353 351 351 351 351 349 348 348 347 348 350 343 349 8 15 44 41 44 45 351 338 19 347 346 307 296 287 235 230 246 237 226 246 262 271 279 285 291 284
357 356 357 357 357 355 355 353 351 351 351 351 351 350 348 348 348 352 356 10 358 30 22 42 4 32 19 355 36 16 4 327 277 274 263 219 237 250 271 283 295 304 299 292 292 297 289
352 353 355 355 354 353 353 352 351 351 351 351 350 350 349 348 348 354 5 43 15 318 319 36 32 68 29 5 279 18 356 332 321 285 298 292 266 261 270 288 300 288 283 284 284 286 272
346 351 353 352 352 352 353 352 352 351 350 350 349 348 351 349 350 355 7 13 1 330 256 85 61 37 4 356 24 2 355 331 284 284 291 295 299 313 319 310 303 297 294 304 309 320 305
344 350 351 351 350 351 351 351 351 351 349 349 349 349 352 355 356 357 342 349 351 18 250 75 63 19 347 333 98 13 4 346 323 327 342 292 346 339 322 318 357 319 335 325 317 316 298
336 344 349 349 351 351 352 351 350 350 350 349 349 351 357 359 354 359 337 339 350 61 3 30 46 42 358 46 329 27 4 9 334 327 322 279 341 325 333 359 344 325 332 322 315 301 296
336 346 348 351 352 352 351 350 349 349 350 350 350 353 2 2 357 344 339 340 34 340 290 25 38 357 354 31 36 354 351 20 334 325 300 341 312 28 32 354 360 343 331 317 290 288 284
335 341 344 350 352 352 350 349 349 348 349 349 351 0 2 4 352 346 337 29 339 31 15 8 345 349 320 354 354 20 358 17 37 351 2 308 36 16 22 348 335 341 334 325 317 328 281
332 340 346 350 352 351 349 350 350 349 349 348 351 8 11 5 355 347 347 261 38 28 16 6 339 315 56 20 352 2 350 23 37 19 329 354 327 5 341 326 313 313 292 316 305 307 305
326 338 346 349 350 350 350 350 349 349 349 350 350 11 15 360 356 359 8 44 25 10 344 334 312 333 64 11 8 1 355 33 41 17 4 324 314 322 308 326 315 338 311 303 293 288 266
325 337 343 348 349 350 350 349 348 350 349 351 357 28 7 359 8 11 55 112 88 25 341 340 347 5 345 4 6 355 334 70 25 9 359 323 309 318 328 320 9 41 5 321 308 281 254
318 336 343 347 351 352 351 349 349 352 352 355 13 80 5 8 29 52 65 69 71 27 13 4 354 324 355 5 341 340 15 6 16 358 340 326 337 319 318 343 27 354 342 344 297 310 331
315 332 341 349 351 351 351 350 352 354 358 3 33 343 357 10 52 57 46 24 17 10 9 13 27 1 4 342 331 356 20 359 7 354 355 347 295 316 331 345 8 17 16 330 281 329 298
311 329 346 350 351 355 352 352 354 358 2 3 41 6 9 36 54 80 128 116 71 25 28 15 33 19 16 345 330 12 352 9 10 354 353 332 316 327 337 342 38 31 13 11 326 330 21
309 331 345 349 353 353 352 355 358 5 7 12 29 12 29 58 61 43 19 59 91 52 59 8 4 11 0 336 332 308 5 350 27 1 344 353 305 330 321 333 53 32 27 18 33 26 4
293 339 342 342 349 355 355 358 4 15 20 31 42 52 22 15 35 61 45 40 38 27 11 35 57 21 341 323 333 10 353 336 350 9 345 345 311 328 326 125 70 47 33 19 22 33 23
286 309 333 337 348 358 359 4 13 24 35 57 73 28 76 85 77 336 15 75 51 15 6 26 9 341 308 337 20 326 331 328 334 354 342 326 317 329 326 168 106 69 35 18 6 29 16
275 307 320 339 351 0 4 10 19 29 33 65 72 82 70 31 47 6 46 65 59 1 87 43 351 325 345 356 316 294 287 283 291 309 318 330 331 325 302 332 189 60 17 15 351 0 20
253 287 318 336 351 3 6 16 27 36 46 53 66 77 0 92 64 59 72 72 61 40 346 0 1 341 333 319 310 284 248 243 244 287 5 328 339 327 305 342 320 123 37 350 347 48 32
216 268 312 327 355 4 13 22 33 40 45 46 57 81 85 97 113 110 77 22 205 170 113 21 353 328 325 313 278 293 187 179 226 65 22 356 349 324 329 328 109 36 10 352 327 337 19
215 229 293 321 2 10 14 26 34 37 39 43 57 67 102 131 44 64 89 44 17 351 154 59 358 347 335 282 291 287 40 21 331 338 36 348 8 321 336 332 326 3 343 336 306 213 3
221 191 256 316 354 10 22 25 34 37 36 44 60 64 99 99 57 30 52 41 11 351 270 51 357 342 0 336 335 38 4 40 5 330 358 342 351 3 339 311 133 13 4 350 14 332 339
223 168 208 275 338 1 22 34 33 35 35 46 64 71 106 102 89 72 83 86 17 19 30 343 358 6 4 12 27 352 8 344 354 84 356 45 345 350 339 285 347 16 1 31 336 331 333
192 166 204 197 338 3 18 28 29 32 38 52 75 86 109 107 127 86 81 107 89 54 23 22 33 28 16 10 20 344 338 325 328 32 24 63 130 245 300 303 349 350 24 357 349 333 329
Wind_Speed_850mb
21 23 26 29 31 34 36 38 41 44 46 48 50 50 50 48 47 46 43 39 41 43 40 33 24 15 3 3 5 15 11 9 7 7 8 13 19 25 23 19 28 32 25 41 51 58 38
21 25 27 30 32 34 37 39 42 44 48 50 51 51 51 49 48 48 44 43 44 42 30 28 19 5 7 4 4 13 10 6 3 7 9 14 14 22 24 27 24 35 48 38 43 49 51
21 24 26 29 32 34 37 41 45 48 51 53 54 54 52 50 47 47 43 44 46 30 25 18 13 9 10 1 11 10 9 9 8 5 10 13 19 14 18 16 27 25 29 29 35 51 35
19 23 26 29 32 36 39 43 46 50 53 55 56 56 53 49 46 45 43 46 39 23 18 14 10 14 7 12 14 14 9 9 13 7 10 16 13 22 28 26 37 27 26 28 14 25 30
20 24 27 30 33 37 40 44 48 52 55 56 57 57 54 49 46 41 42 43 28 13 21 9 17 10 9 14 21 15 12 9 12 13 14 12 11 17 19 16 16 22 20 30 29 18 13
19 22 25 30 34 38 43 48 52 56 57 57 56 56 54 50 47 37 42 35 21 12 28 10 16 4 14 16 18 16 16 13 8 14 19 12 14 11 10 10 14 17 30 39 38 21 30
19 23 27 32 36 39 44 49 53 55 57 58 58 57 54 51 46 34 39 22 16 8 21 8 8 5 10 26 13 13 21 15 14 14 9 17 8 16 22 29 38 36 39 46 46 34 31
19 23 27 31 35 40 45 49 53 55 56 57 56 54 49 48 40 34 31 18 13 9 7 12 10 10 9 26 7 24 24 13 21 20 23 16 27 28 32 29 34 34 45 49 50 41 37
19 23 28 33 37 42 47 51 54 56 57 57 56 52 45 46 29 41 31 33 15 5 9 7 9 10 13 24 12 25 32 21 20 21 19 20 29 33 25 27 38 36 38 40 47 50 46
19 23 28 33 37 42 46 50 53 55 57 56 53 48 42 40 18 31 26 36 17 3 6 5 5 13 26 27 6 24 34 14 10 17 22 17 23 41 36 33 35 32 37 47 46 36 29
17 20 25 31 36 42 48 51 54 55 56 56 53 44 39 38 22 25 34 30 16 7 5 8 7 7 29 16 21 30 21 20 21 28 12 14 32 32 29 24 31 34 40 35 44 39 34
18 22 27 32 38 43 47 51 54 55 55 53 49 40 37 36 30 36 34 25 6 1 6 7 6 16 24 29 11 28 24 29 17 14 15 33 51 22 28 37 33 47 41 43 31 17 21
17 22 26 31 36 42 47 50 54 55 54 52 45 29 35 38 36 36 33 9 4 5 13 13 11 18 19 20 12 28 29 30 21 17 24 27 7 33 53 60 51 43 38 17 8 10 23
17 21 26 31 36 41 46 51 54 54 51 50 41 18 38 44 36 36 20 4 9 12 13 18 15 35 11 23 18 27 31 15 35 28 23 19 18 49 52 47 36 32 22 7 16 18 25
16 20 24 29 34 40 46 51 53 50 48 45 35 14 44 39 31 29 12 10 12 13 12 22 32 7 5 20 15 21 24 20 21 26 23 23 26 44 41 35 36 22 22 32 23 25 18
16 19 23 28 35 42 48 51 50 47 45 42 25 11 46 40 26 26 11 9 7 16 19 14 11 16 18 27 21 28 17 19 17 29 34 23 42 25 39 35 21 20 27 8 7 10 22
14 17 22 28 35 43 47 49 48 44 42 37 14 4 33 26 18 21 7 9 9 19 24 16 15 15 18 20 22 19 15 13 34 25 38 25 14 23 29 29 20 17 18 13 11 11 8
12 15 19 26 35 41 45 46 43 41 41 34 9 2 30 19 13 15 7 7 11 16 26 10 11 13 13 21 12 11 18 17 37 33 20 14 8 18 31 25 20 23 23 16 6 10 11
11 14 19 28 34 40 43 41 37 37 39 31 6 6 22 24 8 10 13 9 12 16 17 12 12 11 14 13 8 13 13 28 29 18 17 13 7 17 23 26 21 21 32 37 12 13 27
8 12 19 27 34 37 39 36 32 31 34 22 8 4 17 32 23 10 6 9 7 15 13 17 6 13 16 15 7 8 18 16 15 20 39 23 12 22 13 10 15 17 37 33 27 13 15
6 12 20 30 30 34 35 31 28 26 30 13 12 8 9 7 16 21 13 7 13 11 14 16 5 18 15 8 10 14 19 16 20 29 34 14 15 21 23 9 19 23 27 32 30 19 15
8 13 24 24 27 31 32 27 24 23 21 33 7 3 9 10 3 3 13 7 12 9 8 9 11 17 16 7 11 15 18 15 8 19 14 16 11 25 23 15 17 19 26 26 28 21 13
14 15 16 20 25 28 29 24 21 23 24 16 13 9 5 4 2 7 6 9 11 14 9 9 14 15 10 18 29 33 28 25 12 7 10 11 14 18 8 28 21 7 20 23 25 20 13
14 12 12 19 21 24 23 21 22 26 30 23 17 12 6 6 13 9 11 9 9 10 7 11 18 12 21 35 33 31 28 15 12 9 21 11 16 9 11 21 10 13 19 18 27 20 25
12 10 14 17 17 19 20 20 22 25 26 24 19 8 6 6 18 13 11 5 11 16 8 5 14 16 24 28 7 7 7 9 7 11 14 19 6 7 8 16 6 6 27 25 29 17 28
16 10 11 13 14 16 18 18 21 24 24 21 18 12 12 14 10 8 9 8 8 9 9 10 13 17 21 9 5 3 4 4 6 11 29 22 14 1 8 15 8 18 27 50 39 7 51
15 16 8 8 11 13 13 14 19 22 22 20 19 12 14 18 8 11 13 7 8 9 5 17 16 16 26 8 6 6 5 8 7 10 11 10 9 12 13 8 6 24 34 37 11 16 57
21 19 8 3 7 11 11 12 17 20 20 17 19 12 12 14 15 11 12 10 6 17 5 16 4 19 12 9 6 5 5 2 2 5 5 5 5 7 8 8 6 53 24 10 20 44 50
28 18 12 5 2 6 9 13 17 19 18 14 19 18 21 16 17 12 14 9 8 11 8 11 1 11 13 4 7 6 5 4 8 3 8 4 7 3 2 9 34 50 24 36 46 49 51
Wind_Direction_850mb
25 23 16 13 12 11 9 5 4 2 359 356 354 352 350 348 344 343 343 340 337 334 330 326 323 318 299 65 69 296 292 299 301 254 216 249 261 259 251 273 279 258 278 269 279 281 275
19 19 13 10 10 8 6 3 1 359 356 354 351 350 348 347 344 342 342 339 338 336 337 336 339 342 110 201 278 309 295 305 227 277 261 248 254 293 313 282 273 291 300 291 295 287 283
17 15 10 8 7 5 2 0 358 356 354 351 349 348 348 347 344 341 340 339 339 344 347 360 14 72 75 239 339 341 357 310 292 259 270 267 264 273 299 305 284 301 298 285 267 263 249
13 11 7 6 5 2 360 358 356 354 352 350 348 348 347 346 344 342 341 341 341 351 1 9 42 85 64 31 48 21 346 324 329 315 284 258 264 270 263 271 293 287 271 275 250 268 243
7 6 3 2 1 359 357 355 353 352 351 351 349 348 347 347 346 344 344 341 344 19 12 45 53 47 83 36 357 334 334 307 291 294 287 275 276 246 276 245 285 239 266 259 269 192 213
5 2 358 359 359 357 355 353 353 351 351 351 351 349 348 348 347 348 350 343 349 8 15 44 41 44 45 351 338 19 347 346 307 296 287 235 230 246 237 226 246 262 271 279 285 291 284
357 356 357 357 357 355 355 353 351 351 351 351 351 350 348 348 348 352 356 10 358 30 22 42 4 32 19 355 36 16 4 327 277 274 263 219 237 250 271 283 295 304 299 292 292 297 289
352 353 355 355 354 353 353 352 351 351 351 351 350 350 349 348 348 354 5 43 15 318 319 36 32 68 29 5 279 18 356 332 321 285 298 292 266 261 270 288 300 288 283 284 284 286 272
346 351 353 352 352 352 353 352 352 351 350 350 349 348 351 349 350 355 7 13 1 330 256 85 61 37 4 356 24 2 355 331 284 284 291 295 299 313 319 310 303 297 294 304 309 320 305
344 350 351 351 350 351 351 351 351 351 349 349 349 349 352 355 356 357 342 349 351 18 250 75 63 19 347 333 98 13 4 346 323 327 342 292 346 339 322 318 357 319 335 325 317 316 298
336 344 349 349 351 351 352 351 350 350 350 349 349 351 357 359 354 359 337 339 350 61 3 30 46 42 358 46 329 27 4 9 334 327 322 279 341 325 333 359 344 325 332 322 315 301 296
336 346 348 351 352 352 351 350 349 349 350 350 350 353 2 2 357 344 339 340 34 340 290 25 38 357 354 31 36 354 351 20 334 325 300 341 312 28 32 354 360 343 331 317 290 288 284
335 341 344 350 352 352 350 349 349 348 349 349 351 0 2 4 352 346 337 29 339 31 15 8 345 349 320 354 354 20 358 17 37 351 2 308 36 16 22 348 335 341 334 325 317 328 281
332 340 346 350 352 351 349 350 350 349 349 348 351 8 11 5 355 347 347 261 38 28 16 6 339 315 56 20 352 2 350 23 37 19 329 354 327 5 341 326 313 313 292 316 305 307 305
326 338 346 349 350 350 350 350 349 349 349 350 350 11 15 360 356 359 8 44 25 10 344 334 312 333 64 11 8 1 355 33 41 17 4 324 314 322 308 326 315 338 311 303 293 288 266
325 337 343 348 349 350 350 349 348 350 349 351 357 28 7 359 8 11 55 112 88 25 341 340 347 5 345 4 6 355 334 70 25 9 359 323 309 318 328 320 9 41 5 321 308 281 254
318 336 343 347 351 352 351 349 349 352 352 355 13 80 5 8 29 52 65 69 71 27 13 4 354 324 355 5 341 340 15 6 16 358 340 326 337 319 318 343 27 354 342 344 297 310 331
315 332 341 349 351 351 351 350 352 354 358 3 33 343 357 10 52 57 46 24 17 10 9 13 27 1 4 342 331 356 20 359 7 354 355 347 295 316 331 345 8 17 16 330 281 329 298
311 329 346 350 351 355 352 352 354 358 2 3 41 6 9 36 54 80 128 116 71 25 28 15 33 19 16 345 330 12 352 9 10 354 353 332 316 327 337 342 38 31 13 11 326 330 21
309 331 345 349 353 353 352 355 358 5 7 12 29 12 29 58 61 43 19 59 91 52 59 8 4 11 0 336 332 308 5 350 27 1 344 353 305 330 321 333 53 32 27 18 33 26 4
293 339 342 342 349 355 355 358 4 15 20 31 42 52 22 15 35 61 45 40 38 27 11 35 57 21 341 323 333 10 353 336 350 9 345 345 311 328 326 125 70 47 33 19 22 33 23
286 309 333 337 348 358 359 4 13 24 35 57 73 28 76 85 77 336 15 75 51 15 6 26 9 341 308 337 20 326 331 328 334 354 342 326 317 329 326 168 106 69 35 18 6 29 16
275 307 320 339 351 0 4 10 19 29 33 65 72 82 70 31 47 6 46 65 59 1 87 43 351 325 345 356 316 294 287 283 291 309 318 330 331 325 302 332 189 60 17 15 351 0 20
253 287 318 336 351 3 6 16 27 36 46 53 66 77 0 92 64 59 72 72 61 40 346 0 1 341 333 319 310 284 248 243 244 287 5 328 339 327 305 342 320 123 37 350 347 48 32
216 268 312 327 355 4 13 22 33 40 45 46 57 81 85 97 113 110 77 22 205 170 113 21 353 328 325 313 278 293 187 179 226 65 22 356 349 324 329 328 109 36 10 352 327 337 19
215 229 293 321 2 10 14 26 34 37 39 43 57 67 102 131 44 64 89 44 17 351 154 59 358 347 335 282 291 287 40 21 331 338 36 348 8 321 336 332 326 3 343 336 306 213 3
221 191 256 316 354 10 22 25 34 37 36 44 60 64 99 99 57 30 52 41 11 351 270 51 357 342 0 336 335 38 4 40 5 330 358 342 351 3 339 311 133 13 4 350 14 332 339
223 168 208 275 338 1 22 34 33 35 35 46 64 71 106 102 89 72 83 86 17 19 30 343 358 6 4 12 27 352 8 344 354 84 356 45 345 350 339 285 347 16 1 31 336 331 333
192 166 204 197 338 3 18 28 29 32 38 52 75 86 109 107 127 86 81 107 89 54 23 22 33 28 16 10 20 344 338 325 328 32 24 63 130 245 300 303 349 350 24 357 349 333 329